EW2581 Weather Reports


time (UTC)temp
C
wind
direction
speed
KPH
gust
KPH
rain 1hr
cm
rain 24hr
cm
rain mn
cm
humidity
%
barometer
mb
20260906220010 28 360 0.0 0.0 0.00 0.00 0.00 21 1005.6
20260906214506 28 360 0.0 0.0 0.00 0.00 0.00 21 1005.8
20260906213005 28 360 0.0 0.0 0.00 0.00 0.00 21 1005.9
20260906211503 28 360 0.0 0.0 0.00 0.00 0.00 22 1006.2
20260906210003 28 360 0.0 0.0 0.00 0.00 0.00 21 1006.3
20260906204504 28 360 0.0 0.0 0.00 0.00 0.00 20 1006.5
20260906203101 27 360 0.0 0.0 0.00 0.00 0.00 21 1006.9
20260906201602 28 360 0.0 0.0 0.00 0.00 0.00 21 1007.0
20260906200058 27 360 0.0 0.0 0.00 0.00 0.00 21 1007.1
20260906194558 27 360 0.0 0.0 0.00 0.00 0.00 21 1007.3
20260906193057 29 360 0.0 0.0 0.00 0.00 0.00 20 1007.3
20260906191610 28 360 0.0 0.0 0.00 0.00 0.00 19 1007.5
20260906190053 28 360 0.0 0.0 0.00 0.00 0.00 19 1007.8
20260906184557 27 360 0.0 0.0 0.00 0.00 0.00 20 1008.2
20260906183048 27 360 0.0 0.0 0.00 0.00 0.00 20 1008.5
20260906181545 27 360 0.0 0.0 0.00 0.00 0.00 20 1009.0
20260906180101 27 360 0.0 0.0 0.00 0.00 0.00 20 1009.3
20260906174540 26 360 0.0 0.0 0.00 0.00 0.00 20 1009.6
20260906173039 26 360 0.0 0.0 0.00 0.00 0.00 21 1009.8
20260906171532 25 360 0.0 0.0 0.00 0.00 0.00 23 1009.8
20260906170028 24 360 0.0 0.0 0.00 0.00 0.00 27 1010.0
20260906164524 22 360 0.0 0.0 0.00 0.00 0.00 33 1010.1
20260906163020 21 360 0.0 0.0 0.00 0.00 0.00 38 1010.3
20260906161516 20 360 0.0 0.0 0.00 0.00 0.00 42 1010.5
20260906160013 19 360 0.0 0.0 0.00 0.00 0.00 44 1010.8
20260906154509 18 360 0.0 0.0 0.00 0.00 0.00 44 1010.9
20260906153015 17 360 0.0 0.0 0.00 0.00 0.00 48 1011.0
20260906151501 16 360 0.0 0.0 0.00 0.00 0.00 52 1011.0
20260906150058 16 360 0.0 0.0 0.00 0.00 0.00 53 1011.1
20260906144553 14 360 0.0 0.0 0.00 0.00 0.00 58 1011.3
20260906143053 13 360 0.0 0.0 0.00 0.00 0.00 62 1011.4
20260906141551 13 360 0.0 0.0 0.00 0.00 0.00 64 1011.5
20260906140057 12 360 0.0 0.0 0.00 0.00 0.00 64 1011.5
20260906134547 11 360 0.0 0.0 0.00 0.00 0.00 60 1011.6
20260906133046 11 360 0.0 0.0 0.00 0.00 0.00 62 1011.5
20260906131559 10 360 0.0 0.0 0.00 0.00 0.00 64 1011.3
20260906130045 9 360 0.0 0.0 0.00 0.00 0.00 66 1011.3
20260906124544 9 360 0.0 0.0 0.00 0.00 0.00 67 1011.2
20260906123047 9 360 0.0 0.0 0.00 0.00 0.00 67 1011.3
20260906121543 8 360 0.0 0.0 0.00 0.00 0.00 69 1011.2
20260906120039 9 360 0.0 0.0 0.00 0.00 0.00 64 1011.1
20260906114539 9 360 0.0 0.0 0.00 0.00 0.00 63 1011.0
20260906113039 9 360 0.0 0.0 0.00 0.00 0.00 63 1010.9
20260906111536 10 360 0.0 0.0 0.00 0.00 0.00 63 1010.9
20260906110034 10 360 0.0 0.0 0.00 0.00 0.00 62 1010.8
20260906104533 10 360 0.0 0.0 0.00 0.00 0.00 60 1010.7
20260906103033 9 360 0.0 0.0 0.00 0.00 0.00 60 1010.8
20260906101532 10 360 0.0 0.0 0.00 0.00 0.00 58 1010.7
20260906100030 10 360 0.0 0.0 0.00 0.00 0.00 61 1010.7
20260906094529 10 360 0.0 0.0 0.00 0.00 0.00 59 1010.6
20260906093037 10 360 0.0 0.0 0.00 0.00 0.00 58 1010.5
20260906091528 10 360 0.0 0.0 0.00 0.00 0.00 61 1010.4
20260906090027 10 360 0.0 0.0 0.00 0.00 0.00 62 1010.3
20260906084525 10 360 0.0 0.0 0.00 0.00 0.00 58 1010.2
20260906083023 11 360 0.0 0.0 0.00 0.00 0.00 56 1010.1
20260906081526 11 360 0.0 0.0 0.00 0.00 0.00 57 1010.2
20260906080019 11 360 0.0 0.0 0.00 0.00 0.00 55 1010.4
20260906074517 11 360 0.0 0.0 0.00 0.00 0.00 52 1010.3
20260906073014 12 360 0.0 0.0 0.00 0.00 0.00 51 1010.5
20260906071512 13 360 0.0 0.0 0.00 0.00 0.00 49 1010.3
20260906070010 13 360 0.0 0.0 0.00 0.00 0.00 51 1010.3
20260906064511 12 360 0.0 0.0 0.00 0.00 0.00 54 1010.2
20260906063004 13 360 0.0 0.0 0.00 0.00 0.00 54 1010.1
20260906061505 13 360 0.0 0.0 0.00 0.00 0.00 53 1010.0
20260906060003 13 360 0.0 0.0 0.00 0.00 0.00 52 1009.8
20260906054601 15 360 0.0 0.0 0.00 0.00 0.00 49 1009.9
20260906053100 14 360 0.0 0.0 0.00 0.00 0.00 52 1009.8
20260906051603 15 360 0.0 0.0 0.00 0.00 0.00 48 1009.8
20260906050059 16 360 0.0 0.0 0.00 0.00 0.00 45 1009.4
20260906044559 17 360 0.0 0.0 0.00 0.00 0.00 42 1009.6
20260906043059 17 360 0.0 0.0 0.00 0.00 0.00 44 1009.7
20260906041559 18 360 0.0 0.0 0.00 0.00 0.00 42 1009.7
20260906040058 19 360 0.0 0.0 0.00 0.00 0.00 40 1009.5
20260906034558 20 360 0.0 0.0 0.00 0.00 0.00 39 1009.5
20260906033101 20 360 0.0 0.0 0.00 0.00 0.00 39 1009.7
20260906031559 19 360 0.0 0.0 0.00 0.00 0.00 41 1009.3
20260906030056 20 360 0.0 0.0 0.00 0.00 0.00 39 1009.2
20260906024555 21 360 0.0 0.0 0.00 0.00 0.00 36 1008.9
20260906023055 21 360 0.0 0.0 0.00 0.00 0.00 35 1008.8
20260906021559 21 360 0.0 0.0 0.00 0.00 0.00 36 1008.5
20260906020055 23 360 0.0 0.0 0.00 0.00 0.00 32 1008.4
20260906014605 24 360 0.0 0.0 0.00 0.00 0.00 29 1008.4
20260906013054 26 360 0.0 0.0 0.00 0.00 0.00 26 1008.2
20260906011606 26 360 0.0 0.0 0.00 0.00 0.00 27 1008.2
20260906010053 26 360 0.0 0.0 0.00 0.00 0.00 26 1008.2
20260906004552 26 360 0.0 0.0 0.00 0.00 0.00 26 1008.2
20260906003052 26 360 0.0 0.0 0.00 0.00 0.00 26 1008.1
20260906001559 27 360 0.0 0.0 0.00 0.00 0.00 25 1008.0
20260906000051 27 360 0.0 0.0 0.00 0.00 0.00 23 1008.1
20260905234551 28 360 0.0 0.0 0.00 0.00 0.00 22 1008.1
20260905233105 28 360 0.0 0.0 0.00 0.00 0.00 21 1007.9
20260905231555 28 360 0.0 0.0 0.00 0.00 0.00 21 1007.9
20260905230049 27 360 0.0 0.0 0.00 0.00 0.00 22 1007.9
20260905224606 27 360 0.0 0.0 0.00 0.00 0.00 22 1007.7
20260905223048 28 360 0.0 0.0 0.00 0.00 0.00 22 1008.1
20260905221546 28 360 0.0 0.0 0.00 0.00 0.00 21 1008.2